[[{"header":{"parameterUnit":"m.s-1","parameterCategory":1,"la1":30.2992,"la2":30.254,"lo1":-89.0895,"lo2":-89.0443,"dy":0.0025,"dx":0.0025,"nx":19,"ny":19,"refTime":"2026-04-06T21:00:00:Z","depth":0,"parameterNumber":2,"parameterNumberName":"U-component_of_WINDS"},"data":[0,0,0,-3.0966,-3.097,-3.1165,-3.1166,-3.1453,-3.1456,0,0,0,0,0,0,0,0,0,0,0,-3.0928,-3.0931,-3.0965,-3.0971,-3.1165,-3.1166,-3.1452,-3.1456,0,0,0,0,0,0,0,0,0,0,0,-3.0927,-3.093,-3.0933,-3.0971,-3.1165,-3.1166,-3.1452,-3.1292,0,0,0,0,0,0,0,0,0,0,-3.1096,-3.1081,-3.0929,-3.0933,-3.0973,-3.1165,-3.1166,-3.1283,-3.1302,-3.138,0,-3.1452,0,-3.1458,-3.1477,-3.1478,0,0,0,-3.0956,-3.1066,-3.11,-3.0934,-3.0975,-3.1165,-3.1073,-3.1293,-3.1314,-3.1404,-3.1456,-3.1466,-3.1463,-3.1479,-3.1481,-3.1974,-3.1977,0,0,-3.0945,-3.0975,-3.1085,-3.1114,-3.1083,-3.1067,-3.108,-3.1305,-3.1365,-3.1457,-3.1472,-3.1468,-3.1481,-3.1484,-3.1971,-3.1975,0,0,0,-3.0924,-3.0968,-3.0995,-3.1103,-3.1135,-3.1073,-3.1087,-3.1355,-3.1361,-3.1475,-3.1471,-3.1483,-3.1487,-3.1968,-3.1973,-3.2152,0,0,0,-3.0917,-3.0955,-3.0991,-3.1012,-3.1132,-3.1247,-3.1133,-3.1345,-3.137,-3.147,-3.1483,-3.149,-3.1965,-3.1971,-3.214,-3.2235,0,0,0,-3.0909,-3.0954,-3.0989,-3.1013,-3.1097,-3.1243,-3.1261,-3.135,-3.1369,-3.1478,-3.1491,-3.1962,-3.1969,-3.2129,-3.2217,-3.2378,0,0,0,-3.0909,-3.1145,-3.0992,-3.1254,-3.1096,-3.1349,-3.1259,-3.1447,-3.1562,-3.1485,-3.1965,-3.1972,-3.2126,-3.2206,-3.2366,-3.2523,-3.2588,0,0,-3.1224,-3.1184,-3.1336,-3.1205,-3.1494,-3.1317,-3.1633,-3.1711,-3.1694,-3.1882,-3.1894,-3.2144,-3.2216,-3.2375,-3.2937,-3.2989,0,0,0,-3.1446,-3.1557,-3.1626,-3.1736,-3.1799,-3.1863,-3.1888,-3.1917,-3.2075,-3.1796,-3.2241,-3.2282,-3.2375,-3.2449,-3.2494,-3.2574,-3.2005,-3.2005,-3.2004,-3.1939,-3.1903,-3.2154,-3.2143,-3.225,-3.2273,-3.2359,-3.2402,-3.2334,-3.244,-3.2499,-3.2843,-3.2931,-3.2964,-3.3048,-3.2572,-3.2573,-3.2573,-3.2574,-3.2403,-3.2557,-3.2459,-3.2669,-3.263,-3.2806,-3.2837,-3.2783,-3.2944,-3.2796,-3.2876,-3.2724,-3.3023,-3.3095,-3.2587,-3.2585,-3.2583,-3.2582,-3.2581,-3.2729,-3.2797,-3.2824,-3.298,-3.3105,-3.3082,-3.3242,-3.3199,-3.316,-3.3239,-3.3299,-3.3296,-3.3294,-3.3269,-3.327,-3.3271,-3.3272,-3.3273,-3.3274,-3.3059,-3.3084,-3.3223,-3.3308,-3.3374,-3.3455,-3.3478,-3.3543,-3.3604,-3.3561,-3.3561,-3.3488,-3.3055,-3.2952,-3.3292,-3.3289,-3.3287,-3.3285,-3.3284,-3.3556,-3.3436,-3.365,-3.3716,-3.3814,-3.3942,-3.3883,-3.4018,-3.4064,-3.4145,-3.4051,-3.3736,-3.3694,-3.3658,-3.3573,-3.4054,-3.4054,-3.4054,-3.4054,-3.3837,-3.3808,-3.4019,-3.4127,-3.4227,-3.4195,-3.4443,-3.4463,-3.4465,-3.4493,-3.4415,-3.4295,-3.426,-3.4239,-3.4191,-3.4111,-3.4718,-3.4718,-3.4719,-3.4144,-3.4123,-3.4342,-3.4339,-3.4412,-3.4477,-3.4709,-3.484,-3.4817,-3.4745,-3.4515,-3.4487,-3.4293,-3.423,-3.4162,-3.4088,-3.394,0,0]},{"header":{"parameterUnit":"m.s-1","parameterCategory":1,"la1":30.2992,"la2":30.254,"lo1":-89.0895,"lo2":-89.0443,"dy":0.0025,"dx":0.0025,"nx":19,"ny":19,"refTime":"2026-04-06T21:00:00:Z","depth":0,"parameterNumber":3,"parameterNumberName":"V-component_of_WINDS"},"data":[0,0,0,-5.6542,-5.6545,-5.6699,-5.67,-5.6915,-5.6917,0,0,0,0,0,0,0,0,0,0,0,-5.6511,-5.6513,-5.6541,-5.6546,-5.6699,-5.67,-5.6915,-5.6917,0,0,0,0,0,0,0,0,0,0,0,-5.651,-5.6512,-5.6515,-5.6546,-5.6699,-5.67,-5.6914,-5.6791,0,0,0,0,0,0,0,0,0,0,-5.6638,-5.6625,-5.6512,-5.6515,-5.6547,-5.6699,-5.67,-5.6785,-5.6799,-5.6855,0,-5.6911,0,-5.6918,-5.6933,-5.6934,0,0,0,-5.6534,-5.6613,-5.6642,-5.6515,-5.6549,-5.6699,-5.6626,-5.6792,-5.6808,-5.6874,-5.6914,-5.6922,-5.6922,-5.6935,-5.6936,-5.7305,-5.7307,0,0,-5.6525,-5.6546,-5.6631,-5.6653,-5.6634,-5.6622,-5.6631,-5.6801,-5.6846,-5.6915,-5.6926,-5.6925,-5.6937,-5.6938,-5.7303,-5.7306,0,0,0,-5.6509,-5.654,-5.6564,-5.6644,-5.6671,-5.6626,-5.6638,-5.6839,-5.6845,-5.6928,-5.6928,-5.6938,-5.6941,-5.73,-5.7304,-5.7437,0,0,0,-5.6503,-5.6531,-5.6561,-5.6575,-5.6668,-5.6757,-5.6671,-5.6833,-5.6851,-5.6927,-5.6938,-5.6943,-5.7298,-5.7302,-5.7428,-5.7497,0,0,0,-5.6495,-5.6529,-5.6557,-5.6576,-5.6643,-5.6754,-5.677,-5.6836,-5.6852,-5.6934,-5.6944,-5.7296,-5.7301,-5.742,-5.7484,-5.7601,0,0,0,-5.6493,-5.6673,-5.656,-5.676,-5.6642,-5.6836,-5.6768,-5.6911,-5.6998,-5.6939,-5.7298,-5.7304,-5.7418,-5.7476,-5.7592,-5.7704,-5.7752,0,0,-5.6732,-5.6703,-5.6819,-5.6722,-5.6942,-5.6811,-5.7049,-5.7108,-5.7096,-5.7235,-5.7244,-5.7431,-5.7483,-5.7599,-5.8013,-5.8052,0,0,0,-5.6901,-5.6985,-5.7039,-5.7124,-5.7174,-5.7222,-5.7242,-5.7263,-5.7381,-5.7173,-5.7504,-5.7534,-5.7601,-5.7653,-5.7686,-5.7742,-5.7328,-5.7328,-5.7327,-5.727,-5.7245,-5.7435,-5.7429,-5.7512,-5.753,-5.7594,-5.7625,-5.7575,-5.7653,-5.7695,-5.795,-5.8012,-5.8036,-5.8095,-5.7751,-5.7752,-5.7752,-5.7752,-5.7618,-5.7733,-5.7662,-5.7822,-5.7793,-5.7925,-5.7948,-5.7908,-5.8026,-5.7917,-5.7974,-5.7859,-5.808,-5.8129,-5.7762,-5.776,-5.7759,-5.7758,-5.7758,-5.7858,-5.7908,-5.7932,-5.805,-5.8143,-5.8129,-5.8245,-5.8214,-5.8185,-5.8242,-5.8283,-5.828,-5.8274,-5.8263,-5.8264,-5.8265,-5.8266,-5.8267,-5.8267,-5.8098,-5.812,-5.8223,-5.829,-5.8339,-5.84,-5.8418,-5.8464,-5.8508,-5.8476,-5.8476,-5.8418,-5.8106,-5.8029,-5.8281,-5.8278,-5.8277,-5.8275,-5.8275,-5.8462,-5.8374,-5.8534,-5.8584,-5.8658,-5.8752,-5.871,-5.8807,-5.8841,-5.8899,-5.8827,-5.8602,-5.8569,-5.8543,-5.8479,-5.8832,-5.8832,-5.8833,-5.8833,-5.8665,-5.8645,-5.8801,-5.8882,-5.8957,-5.8935,-5.9113,-5.9127,-5.9128,-5.9146,-5.909,-5.9001,-5.8976,-5.8958,-5.8923,-5.8863,-5.9306,-5.9307,-5.9307,-5.8888,-5.8874,-5.9033,-5.9035,-5.909,-5.9137,-5.9303,-5.9396,-5.9378,-5.9326,-5.916,-5.914,-5.8997,-5.8952,-5.8898,-5.8844,-5.8733,0,0]}]]